Location: Taukkyan
(23.1052°N, 94.0030°E)
Time: 11:55:53
(UTC+00:00)

Meteosat 1 Rocket2 - Pass Details

Date: 06 July 2020
Orbit: 485 x 2307 km, 28.3° (Epoch: 15 August)

Event Time Altitude Azimuth Distance (km) Brightness Sun altitude
Rises 15:00:09 0° 284° (WNW) 5,332 8.7 -28.6°
Reaches altitude 10° 15:04:11 10° 287° (WNW) 4,077 7.9 -29.2°
Maximum altitude 15:14:34 73° 11° (N) 1,311 4.6 -30.9°
Enters shadow 15:15:52 62° 67° (ENE) 1,334 4.5 -31.1°
